When you browse on this site, cookies collect data to enhance your experience and personalize the content and advertising you see.
Visit our Privacy Policy to learn more. By continuing to use the site, you agree to this use of cookies and data.

Hourly Weather Sucre

Today, 5 July, Sunday

Time Temperature Precipitation Wind Pressure Humidity
00:00 +19°C° 0.3 mm 1 mps 655 mmHg 93%
01:00 +19°C° 0.3 mm 1 mps 655 mmHg 93%
02:00 +17°C° 0 mm 0 mps 654 mmHg 94%
03:00 +17°C° 0 mm 0 mps 654 mmHg 94%
04:00 +17°C° 0 mm 0 mps 653 mmHg 94%
05:00 +17°C° 0 mm 0 mps 654 mmHg 94%
06:00 +17°C° 0 mm 0 mps 654 mmHg 93%
07:00 +18°C° 0 mm 0 mps 655 mmHg 93%
08:00 +19°C° 0.1 mm 0 mps 655 mmHg 87%
09:00 +23°C° 0.1 mm 1 mps 656 mmHg 81%
10:00 +25°C° 0.1 mm 1 mps 656 mmHg 75%
11:00 +26°C° 0.5 mm 1 mps 656 mmHg 74%
12:00 +26°C° 0.5 mm 1 mps 656 mmHg 72%
13:00 +27°C° 0.5 mm 1 mps 655 mmHg 71%
14:00 +27°C° 0.8 mm 1 mps 655 mmHg 73%
15:00 +26°C° 0.8 mm 1 mps 654 mmHg 76%
16:00 +25°C° 0.8 mm 1 mps 653 mmHg 78%
17:00 +24°C° 1.4 mm 1 mps 653 mmHg 83%
18:00 +22°C° 1.4 mm 1 mps 654 mmHg 88%
19:00 +21°C° 1.4 mm 1 mps 654 mmHg 93%
20:00 +20°C° 0.9 mm 1 mps 654 mmHg 93%
21:00 +20°C° 0.9 mm 1 mps 655 mmHg 93%
22:00 +20°C° 0.9 mm 1 mps 655 mmHg 93%
23:00 +19°C° 0.8 mm 1 mps 655 mmHg 93%

Tomorrow, 6 July, Monday

Time Temperature Precipitation Wind Pressure Humidity
00:00 +19°C° 0.8 mm 1 mps 655 mmHg 93%
01:00 +19°C° 0.8 mm 1 mps 654 mmHg 93%
02:00 +19°C° 0.2 mm 1 mps 654 mmHg 93%
03:00 +19°C° 0.2 mm 1 mps 654 mmHg 93%
04:00 +17°C° 0.2 mm 0 mps 653 mmHg 93%
05:00 +17°C° 0 mm 0 mps 654 mmHg 92%
06:00 +18°C° 0 mm 0 mps 654 mmHg 91%
07:00 +18°C° 0 mm 0 mps 655 mmHg 91%
08:00 +19°C° 0.1 mm 0 mps 656 mmHg 89%
09:00 +20°C° 0.1 mm 0 mps 656 mmHg 87%
10:00 +21°C° 0.1 mm 0 mps 657 mmHg 85%
11:00 +21°C° 0.6 mm 0 mps 657 mmHg 85%
12:00 +21°C° 0.6 mm 0 mps 656 mmHg 85%
13:00 +21°C° 0.6 mm 0 mps 656 mmHg 85%
14:00 +21°C° 0.5 mm 0 mps 655 mmHg 85%
15:00 +21°C° 0.5 mm 0 mps 655 mmHg 86%
16:00 +21°C° 0.5 mm 0 mps 654 mmHg 86%
17:00 +21°C° 0.2 mm 0 mps 655 mmHg 88%
18:00 +20°C° 0.2 mm 0 mps 655 mmHg 89%
19:00 +19°C° 0.2 mm 0 mps 655 mmHg 91%
20:00 +21°C° 0.2 mm 1 mps 655 mmHg 91%
21:00 +21°C° 0.2 mm 1 mps 655 mmHg 90%
22:00 +20°C° 0.2 mm 1 mps 656 mmHg 90%
23:00 +20°C° 0.2 mm 1 mps 655 mmHg 90%

Day after tomorrow, 7 July, Tuesday

Time Temperature Precipitation Wind Pressure Humidity
00:00 +18°C° 0.2 mm 0 mps 655 mmHg 90%
01:00 +18°C° 0.2 mm 0 mps 655 mmHg 90%
02:00 +18°C° 0.1 mm 0 mps 654 mmHg 90%
03:00 +19°C° 0.1 mm 1 mps 654 mmHg 91%
04:00 +19°C° 0.1 mm 1 mps 654 mmHg 91%
05:00 +19°C° 0 mm 1 mps 654 mmHg 90%
06:00 +19°C° 0 mm 1 mps 655 mmHg 90%
07:00 +20°C° 0 mm 1 mps 655 mmHg 89%
08:00 +21°C° 0.1 mm 1 mps 656 mmHg 85%
09:00 +21°C° 0.1 mm 0 mps 656 mmHg 81%
10:00 +23°C° 0.1 mm 0 mps 657 mmHg 77%
11:00 +23°C° 0.7 mm 0 mps 657 mmHg 78%
12:00 +22°C° 0.7 mm 0 mps 656 mmHg 80%
13:00 +22°C° 0.7 mm 0 mps 656 mmHg 82%
14:00 +23°C° 0.5 mm 0 mps 655 mmHg 80%
15:00 +23°C° 0.5 mm 0 mps 655 mmHg 78%
16:00 +23°C° 0.5 mm 0 mps 654 mmHg 75%
17:00 +24°C° 0.5 mm 1 mps 654 mmHg 81%
18:00 +22°C° 0.5 mm 1 mps 654 mmHg 86%
19:00 +21°C° 0.5 mm 1 mps 654 mmHg 91%
20:00 +20°C° 0.2 mm 1 mps 654 mmHg 90%
21:00 +20°C° 0.2 mm 1 mps 655 mmHg 89%
22:00 +19°C° 0.2 mm 1 mps 655 mmHg 89%
23:00 +19°C° 0 mm 1 mps 654 mmHg 89%

8 July, Wednesday

Time Temperature Precipitation Wind Pressure Humidity
00:00 +19°C° 0 mm 1 mps 654 mmHg 88%
01:00 +19°C° 0 mm 1 mps 654 mmHg 88%
02:00 +19°C° 0 mm 1 mps 654 mmHg 88%
03:00 +18°C° 0 mm 1 mps 653 mmHg 88%
04:00 +18°C° 0 mm 1 mps 653 mmHg 87%
05:00 +19°C° 0 mm 1 mps 653 mmHg 86%
06:00 +19°C° 0 mm 1 mps 654 mmHg 85%
07:00 +19°C° 0 mm 1 mps 654 mmHg 84%
08:00 +22°C° 0 mm 1 mps 655 mmHg 79%
09:00 +24°C° 0 mm 1 mps 656 mmHg 73%
10:00 +26°C° 0 mm 1 mps 656 mmHg 68%
11:00 +26°C° 0.3 mm 1 mps 656 mmHg 66%
12:00 +27°C° 0.3 mm 1 mps 656 mmHg 65%
13:00 +28°C° 0.3 mm 1 mps 656 mmHg 64%
14:00 +27°C° 0.7 mm 1 mps 655 mmHg 66%
15:00 +27°C° 0.7 mm 1 mps 654 mmHg 68%
16:00 +27°C° 0.7 mm 1 mps 654 mmHg 71%
17:00 +25°C° 1.4 mm 1 mps 654 mmHg 78%
18:00 +23°C° 1.4 mm 1 mps 654 mmHg 85%
19:00 +21°C° 1.4 mm 1 mps 653 mmHg 92%
20:00 +20°C° 0.8 mm 1 mps 654 mmHg 92%
21:00 +20°C° 0.8 mm 1 mps 654 mmHg 92%
22:00 +19°C° 0.8 mm 1 mps 655 mmHg 92%
23:00 +19°C° 0.3 mm 1 mps 654 mmHg 92%

9 July, Thursday

Time Temperature Precipitation Wind Pressure Humidity
00:00 +19°C° 0.3 mm 1 mps 654 mmHg 92%
01:00 +19°C° 0.3 mm 1 mps 654 mmHg 92%
02:00 +19°C° 0.1 mm 1 mps 653 mmHg 92%
03:00 +19°C° 0.1 mm 1 mps 653 mmHg 91%
04:00 +19°C° 0.1 mm 1 mps 653 mmHg 91%
05:00 +19°C° 0 mm 1 mps 653 mmHg 90%
06:00 +19°C° 0 mm 1 mps 654 mmHg 89%
07:00 +20°C° 0 mm 1 mps 654 mmHg 88%
08:00 +21°C° 0.1 mm 1 mps 655 mmHg 85%
09:00 +22°C° 0.1 mm 1 mps 655 mmHg 82%
10:00 +23°C° 0.1 mm 1 mps 656 mmHg 79%
11:00 +24°C° 0.3 mm 1 mps 655 mmHg 78%
12:00 +24°C° 0.3 mm 1 mps 655 mmHg 77%
13:00 +24°C° 0.3 mm 1 mps 655 mmHg 75%
14:00 +25°C° 0.3 mm 1 mps 655 mmHg 73%
15:00 +26°C° 0.3 mm 1 mps 654 mmHg 71%
16:00 +26°C° 0.3 mm 1 mps 654 mmHg 69%
17:00 +24°C° 0.3 mm 1 mps 654 mmHg 75%
18:00 +23°C° 0.3 mm 1 mps 654 mmHg 82%
19:00 +21°C° 0.3 mm 1 mps 654 mmHg 88%
20:00 +20°C° 0.1 mm 1 mps 654 mmHg 88%
21:00 +20°C° 0.1 mm 1 mps 655 mmHg 87%
22:00 +19°C° 0.1 mm 1 mps 655 mmHg 87%
23:00 +19°C° 0 mm 1 mps 655 mmHg 86%

10 July, Friday

Time Temperature Precipitation Wind Pressure Humidity
00:00 +19°C° 0 mm 1 mps 654 mmHg 86%
01:00 +19°C° 0 mm 1 mps 654 mmHg 85%
02:00 +18°C° 0 mm 1 mps 654 mmHg 84%
03:00 +18°C° 0 mm 1 mps 654 mmHg 83%
04:00 +18°C° 0 mm 1 mps 654 mmHg 82%
05:00 +19°C° 0 mm 1 mps 654 mmHg 82%
06:00 +19°C° 0 mm 1 mps 654 mmHg 82%
07:00 +19°C° 0 mm 1 mps 655 mmHg 82%
08:00 +21°C° 0 mm 1 mps 655 mmHg 74%
09:00 +24°C° 0 mm 1 mps 656 mmHg 67%
10:00 +26°C° 0 mm 1 mps 657 mmHg 59%
11:00 +27°C° 0 mm 1 mps 657 mmHg 56%
12:00 +28°C° 0 mm 1 mps 656 mmHg 53%
13:00 +29°C° 0 mm 1 mps 656 mmHg 50%
14:00 +29°C° 0.1 mm 1 mps 656 mmHg 53%
15:00 +28°C° 0.1 mm 1 mps 655 mmHg 56%
16:00 +28°C° 0.1 mm 1 mps 655 mmHg 60%
17:00 +25°C° 0.8 mm 1 mps 654 mmHg 70%
18:00 +23°C° 0.8 mm 1 mps 654 mmHg 80%
19:00 +21°C° 0.8 mm 1 mps 654 mmHg 90%
20:00 +20°C° 0.5 mm 1 mps 655 mmHg 89%
21:00 +20°C° 0.5 mm 1 mps 655 mmHg 88%
22:00 +20°C° 0.5 mm 1 mps 655 mmHg 88%
23:00 +20°C° 0.2 mm 1 mps 655 mmHg 88%
Show more